Location: Unspecified
(0.0000°N, 0.0000°E)
Time: 05:30:57
(UTC+00:00)

OBJECT AA - Pass Details

Date: 25 May 2026
Orbit: 535 x 552 km, 97.4° (Epoch: 11 June)

Event Time Altitude Azimuth Distance (km) Brightness Sun altitude
Rises 03:32:22 0° 131° (SE) 2,723 ? -33.4°
Reaches altitude 10° 03:36:12 10° 93° (E) 1,825 ? -32.6°
Maximum altitude 03:37:09 11° 79° (ENE) 1,777 ? -32.3°
Drops below altitude 10° 03:38:06 10° 65° (ENE) 1,823 ? -32.1°
Sets 03:41:53 0° 26° (NNE) 2,710 ? -31.3°
